Moriarty, NM

8:54 PM MST on December 04, 2016 (GMT -0700)
Moriarty

Weather History for K0E0 - November, 2013

Change the Weather History Date:

Wednesday, November 6, 2013

  Actual Average (KABQ) Record (KABQ)
Temperature  
Mean Temperature 34 °F 49 °F  
Max Temperature 52 °F 60 °F 78 °F (1909)
Min Temperature 16 °F 38 °F 19 °F (1935)
Degree Days  
Heating Degree Days 31 16  
Month to date heating degree days 90  
Since 1 July heating degree days 356  
Cooling Degree Days 0 0  
Month to date cooling degree days 0  
Year to date cooling degree days 1322  
Moisture  
Dew Point 15 °F    
Average Humidity 49    
Maximum Humidity 82    
Minimum Humidity 18    
Precipitation  
Precipitation 0.00 in 0.02 in 0.32 in (1977)
Month to date precipitation 0.12  
Year to date precipitation 8.50  
Snow  
Snow 0.00 in - - ()
Month to date snowfall  
Since 1 July snowfall  
Since 1 September snowfall  
Snow Depth -    
Sea Level Pressure  
Sea Level Pressure 30.36 in    
Wind  
Wind Speed 7 mph (NW)    
Max Wind Speed 22 mph    
Max Gust Speed 28 mph    
Visibility 10 miles    
Events      
T = Trace of Precipitation, MM = Missing Value Source: NWS Daily Summary

Daily Weather History Graph

Daily Weather History Graph

Search for Another Location

Airport or City:

Trip Planner

Search our weather history database for the weather conditions in past years. The results will help you decide how hot, cold, wet, or windy it might be!

Date:

Astronomy

Nov. 06, 2013 Rise Set
Actual Time 6:30 AM MST 5:04 PM MST
Civil Twilight 6:03 AM MST 5:31 PM MST
Nautical Twilight 5:33 AM MST 6:01 PM MST
Astronomical Twilight 5:03 AM MST 6:31 PM MST
Moon 9:44 AM MST (11/6) 8:15 PM MST (11/6)
Length of Visible Light 11h 27m
Length of Day
10h 34m
Waxing Crescent, 14% of the Moon is Illuminated
Nov 6
Waxing Crescent
Nov 9
First Quarter
Nov 17
Full
Nov 25
Last Quarter
Dec 2
New

Hourly Weather History & Observations

Time (MST) Temp. Windchill Dew Point Humidity Pressure Visibility Wind Dir Wind Speed Gust Speed Precip Events Conditions
12:15 AM 26.2 °F 17.8 °F 14.5 °F 61% 30.26 in 10.0 mi NW 8.1 mph - N/A   Clear
12:35 AM 25.7 °F 21.5 °F 15.4 °F 65% 30.27 in 10.0 mi ENE 3.5 mph - N/A   Clear
12:55 AM 28.2 °F - 14.0 °F 55% 30.27 in 10.0 mi Calm Calm - N/A   Clear
1:15 AM 26.4 °F 17.3 °F 14.0 °F 59% 30.27 in 10.0 mi NW 9.2 mph - N/A   Clear
1:35 AM 28.2 °F 21.0 °F 13.1 °F 53% 30.28 in 10.0 mi NNW 6.9 mph - N/A   Clear
1:55 AM 26.4 °F 22.4 °F 13.3 °F 58% 30.28 in 10.0 mi North 3.5 mph - N/A   Clear
2:15 AM 25.7 °F 20.1 °F 12.9 °F 58% 30.28 in 10.0 mi WNW 4.6 mph - N/A   Clear
2:35 AM 24.8 °F 16.1 °F 13.1 °F 61% 30.28 in 10.0 mi NW 8.1 mph - N/A   Clear
2:55 AM 23.4 °F 14.3 °F 13.6 °F 66% 30.29 in 10.0 mi NW 8.1 mph - N/A   Clear
3:15 AM 21.9 °F 14.5 °F 13.5 °F 70% 30.29 in 10.0 mi WNW 5.8 mph - N/A   Clear
3:35 AM 22.5 °F 15.1 °F 12.9 °F 67% 30.30 in 10.0 mi WNW 5.8 mph - N/A   Clear
3:55 AM 20.8 °F 14.4 °F 12.9 °F 71% 30.31 in 10.0 mi WNW 4.6 mph - N/A   Clear
4:15 AM 20.1 °F 12.3 °F 12.6 °F 73% 30.31 in 10.0 mi WNW 5.8 mph - N/A   Clear
4:35 AM 18.7 °F 8.6 °F 12.4 °F 76% 30.31 in 10.0 mi WNW 8.1 mph - N/A   Clear
4:55 AM 20.3 °F 12.5 °F 12.4 °F 71% 30.31 in 10.0 mi WNW 5.8 mph - N/A   Clear
5:15 AM 20.1 °F 15.2 °F 12.7 °F 73% 30.31 in 10.0 mi NW 3.5 mph - N/A   Clear
5:35 AM 20.8 °F 13.2 °F 12.2 °F 69% 30.31 in 10.0 mi WNW 5.8 mph - N/A   Clear
5:55 AM 18.0 °F 12.7 °F 11.7 °F 76% 30.33 in 10.0 mi ENE 3.5 mph - N/A   Clear
6:15 AM 16.7 °F 11.2 °F 11.5 °F 80% 30.33 in 10.0 mi ENE 3.5 mph - N/A   Clear
6:35 AM 16.3 °F 7.8 °F 11.7 °F 82% 30.35 in 10.0 mi East 5.8 mph - N/A   Clear
6:55 AM 20.5 °F - 12.7 °F 72% 30.35 in 10.0 mi Calm Calm - N/A   Clear
7:15 AM 21.2 °F 14.9 °F 14.0 °F 74% 30.37 in 10.0 mi ENE 4.6 mph - N/A   Clear
7:35 AM 24.1 °F 19.7 °F 16.7 °F 73% 30.37 in 10.0 mi NE 3.5 mph - N/A   Clear
7:55 AM 26.6 °F 22.6 °F 15.4 °F 63% 30.38 in 10.0 mi NNE 3.5 mph - N/A   Clear
8:15 AM 30.9 °F 27.5 °F 17.2 °F 57% 30.38 in 10.0 mi NNW 3.5 mph - N/A   Clear
8:35 AM 34.5 °F 26.7 °F 15.6 °F 46% 30.39 in 10.0 mi NW 10.4 mph - N/A   Clear
8:55 AM 36.0 °F 28.0 °F 14.7 °F 42% 30.40 in 10.0 mi NW 11.5 mph - N/A   Clear
9:15 AM 37.4 °F 29.8 °F 14.5 °F 39% 30.40 in 10.0 mi NW 11.5 mph - N/A   Clear
9:35 AM 38.8 °F 32.1 °F 14.4 °F 37% 30.40 in 10.0 mi WNW 10.4 mph - N/A   Clear
9:55 AM 39.6 °F 32.5 °F 13.5 °F 34% 30.40 in 10.0 mi WNW 11.5 mph - N/A   Clear
10:15 AM 41.0 °F 34.7 °F 13.5 °F 33% 30.39 in 10.0 mi WNW 10.4 mph - N/A   Clear
10:35 AM 41.4 °F 35.2 °F 14.9 °F 34% 30.40 in 10.0 mi NW 10.4 mph - N/A   Clear
10:55 AM 42.1 °F 36.1 °F 13.5 °F 31% 30.39 in 10.0 mi NNW 10.4 mph - N/A   Clear
11:15 AM 44.1 °F 38.1 °F 12.9 °F 28% 30.39 in 10.0 mi NW 11.5 mph 16.1 mph N/A   Clear
11:35 AM 45.3 °F 40.1 °F 12.4 °F 26% 30.38 in 10.0 mi NNW 10.4 mph - N/A   Clear
11:55 AM 47.1 °F - 12.6 °F 25% 30.37 in 10.0 mi NNW 11.5 mph 16.1 mph N/A   Clear
12:15 PM 48.4 °F - 12.4 °F 24% 30.37 in 10.0 mi NNW 13.8 mph 18.4 mph N/A   Clear
12:35 PM 50.4 °F - 10.9 °F 21% 30.35 in 10.0 mi NW 17.3 mph - N/A   Clear
12:55 PM 50.4 °F - 11.1 °F 21% 30.35 in 10.0 mi NW 15.0 mph 19.6 mph N/A   Clear
1:15 PM 51.1 °F - 11.1 °F 20% 30.35 in 10.0 mi NW 16.1 mph 23.0 mph N/A   Clear
1:35 PM 51.4 °F - 11.3 °F 20% 30.35 in 10.0 mi NW 17.3 mph - N/A   Clear
1:55 PM 51.4 °F - 12.2 °F 21% 30.35 in 10.0 mi NNW 12.7 mph 20.7 mph N/A   Clear
2:15 PM 52.5 °F - 10.2 °F 18% 30.35 in 10.0 mi WNW 17.3 mph 23.0 mph N/A   Clear
2:35 PM 52.3 °F - 10.4 °F 19% 30.35 in 10.0 mi NW 21.9 mph 26.5 mph N/A   Clear
2:55 PM 52.5 °F - 11.7 °F 20% 30.35 in 10.0 mi NW 13.8 mph 23.0 mph N/A   Clear
3:15 PM 52.9 °F - 12.0 °F 20% 30.35 in 10.0 mi WNW 15.0 mph - N/A   Clear
3:35 PM 51.8 °F - 13.6 °F 22% 30.35 in 10.0 mi NW 17.3 mph 27.6 mph N/A   Clear
3:55 PM 50.9 °F - 14.4 °F 23% 30.35 in 10.0 mi NW 17.3 mph - N/A   Clear
4:15 PM 49.8 °F - 14.5 °F 25% 30.35 in 10.0 mi NNW 12.7 mph - N/A   Clear
4:35 PM 48.6 °F - 15.3 °F 26% 30.36 in 10.0 mi North 4.6 mph - N/A   Clear
4:55 PM 45.5 °F 41.8 °F 16.5 °F 31% 30.37 in 10.0 mi NNW 6.9 mph - N/A   Clear
5:15 PM 41.5 °F 36.4 °F 16.2 °F 36% 30.37 in 10.0 mi NW 8.1 mph - N/A   Clear
5:35 PM 39.7 °F - 16.0 °F 38% 30.38 in 10.0 mi Calm Calm - N/A   Clear
5:55 PM 39.7 °F - 16.0 °F 38% 30.39 in 10.0 mi Calm Calm - N/A   Clear
6:15 PM 36.0 °F 30.3 °F 17.6 °F 47% 30.39 in 10.0 mi NNW 6.9 mph - N/A   Clear
6:35 PM 34.9 °F 30.8 °F 18.0 °F 50% 30.40 in 10.0 mi NNW 4.6 mph - N/A   Clear
6:55 PM 34.7 °F 29.6 °F 17.2 °F 49% 30.41 in 10.0 mi North 5.8 mph - N/A   Clear
7:15 PM 32.0 °F 24.8 °F 18.5 °F 58% 30.41 in 10.0 mi NW 8.1 mph - N/A   Clear
7:35 PM 34.5 °F 27.3 °F 18.3 °F 52% 30.42 in 10.0 mi WNW 9.2 mph - N/A   Clear
7:55 PM 31.1 °F 26.4 °F 18.9 °F 61% 30.43 in 10.0 mi NNE 4.6 mph - N/A   Clear
8:15 PM 31.8 °F 25.4 °F 18.3 °F 57% 30.43 in 10.0 mi NNW 6.9 mph - N/A   Clear
8:35 PM 33.3 °F 27.1 °F 18.1 °F 54% 30.43 in 10.0 mi WNW 6.9 mph - N/A   Clear
8:55 PM 33.1 °F 28.7 °F 17.6 °F 53% 30.43 in 10.0 mi WNW 4.6 mph - N/A   Clear
9:15 PM 33.6 °F 27.5 °F 17.4 °F 52% 30.44 in 10.0 mi WNW 6.9 mph - N/A   Clear
9:35 PM 30.7 °F - 18.7 °F 61% 30.44 in 10.0 mi Calm Calm - N/A   Clear
9:55 PM 33.1 °F 30.0 °F 17.4 °F 53% 30.44 in 10.0 mi West 3.5 mph - N/A   Clear
10:15 PM 31.5 °F 24.9 °F 17.6 °F 57% 30.45 in 10.0 mi West 6.9 mph - N/A   Clear
10:35 PM 31.1 °F 24.5 °F 17.8 °F 58% 30.45 in 10.0 mi West 6.9 mph - N/A   Clear
10:55 PM 29.8 °F 23.0 °F 17.6 °F 60% 30.44 in 10.0 mi NW 6.9 mph - N/A   Clear
11:15 PM 28.0 °F 21.7 °F 18.3 °F 67% 30.44 in 10.0 mi NE 5.8 mph - N/A   Clear
11:35 PM 30.4 °F 24.5 °F 18.1 °F 60% 30.44 in 10.0 mi NE 5.8 mph - N/A   Clear
11:55 PM 29.7 °F 23.7 °F 17.8 °F 61% 30.45 in 10.0 mi NNE 5.8 mph - N/A   Clear